Year,Month,Day,Hour,Minute,Value (Times are PST for windspeed in km/hr)
2007,08,25,00,00,14.70
2007,08,25,00,01,13.10
2007,08,25,00,02,11.60
2007,08,25,00,03,19.40
2007,08,25,00,04,15.00
2007,08,25,00,05,14.90
2007,08,25,00,06,12.40
2007,08,25,00,07,9.60
2007,08,25,00,08,9.90
2007,08,25,00,09,14.50
2007,08,25,00,10,13.00
2007,08,25,00,11,10.50
2007,08,25,00,12,12.90
2007,08,25,00,13,7.50
2007,08,25,00,14,10.70
2007,08,25,00,15,10.40
2007,08,25,00,16,15.60
2007,08,25,00,17,9.10
2007,08,25,00,18,14.20
2007,08,25,00,19,15.80
2007,08,25,00,20,20.10
2007,08,25,00,21,13.70
2007,08,25,00,22,15.40
2007,08,25,00,23,12.20
2007,08,25,00,24,13.80
2007,08,25,00,25,12.80
2007,08,25,00,26,11.70
2007,08,25,00,27,12.30
2007,08,25,00,28,12.00
2007,08,25,00,29,10.00
2007,08,25,00,30,13.40
2007,08,25,00,31,10.70
2007,08,25,00,32,13.20
2007,08,25,00,33,13.20
2007,08,25,00,34,8.30
2007,08,25,00,35,10.00
2007,08,25,00,36,8.50
2007,08,25,00,37,10.80
2007,08,25,00,38,8.30
2007,08,25,00,39,15.60
2007,08,25,00,40,9.60
2007,08,25,00,41,8.00
2007,08,25,00,42,7.40
2007,08,25,00,43,11.20
2007,08,25,00,44,12.40
2007,08,25,00,45,10.70
2007,08,25,00,46,10.30
2007,08,25,00,47,9.30
2007,08,25,00,48,11.60
2007,08,25,00,49,5.90
2007,08,25,00,50,10.90
2007,08,25,00,51,10.50
2007,08,25,00,52,9.40
2007,08,25,00,53,6.20
2007,08,25,00,54,10.20
2007,08,25,00,55,7.10
2007,08,25,00,56,8.60
2007,08,25,00,57,6.80
2007,08,25,00,58,7.30
2007,08,25,00,59,5.60
2007,08,25,01,00,6.50
2007,08,25,01,01,6.50
2007,08,25,01,02,8.90
2007,08,25,01,03,7.90
2007,08,25,01,04,6.50
2007,08,25,01,05,5.60
2007,08,25,01,06,13.40
2007,08,25,01,07,11.60
2007,08,25,01,08,12.30
2007,08,25,01,09,6.70
2007,08,25,01,10,16.00
2007,08,25,01,11,10.10
2007,08,25,01,12,12.30
2007,08,25,01,13,11.90
2007,08,25,01,14,17.10
2007,08,25,01,15,12.30
2007,08,25,01,16,13.50
2007,08,25,01,17,14.40
2007,08,25,01,18,16.70
2007,08,25,01,19,9.00
2007,08,25,01,20,10.40
2007,08,25,01,21,9.10
2007,08,25,01,22,12.60
2007,08,25,01,23,9.10
2007,08,25,01,24,12.90
2007,08,25,01,25,9.30
2007,08,25,01,26,18.50
2007,08,25,01,27,13.90
2007,08,25,01,28,10.50
2007,08,25,01,29,11.50
2007,08,25,01,30,13.20
2007,08,25,01,31,13.10
2007,08,25,01,32,15.00
2007,08,25,01,33,16.30
2007,08,25,01,34,12.20
2007,08,25,01,35,14.20
2007,08,25,01,36,14.40
2007,08,25,01,37,13.40
2007,08,25,01,38,13.10
2007,08,25,01,39,11.80
2007,08,25,01,40,17.20
2007,08,25,01,41,11.70
2007,08,25,01,42,10.10
2007,08,25,01,43,18.70
2007,08,25,01,44,13.00
2007,08,25,01,45,11.20
2007,08,25,01,46,11.50
2007,08,25,01,47,10.50
2007,08,25,01,48,12.90
2007,08,25,01,49,10.20
2007,08,25,01,50,7.10
2007,08,25,01,51,12.20
2007,08,25,01,52,13.40
2007,08,25,01,53,12.10
2007,08,25,01,54,10.10
2007,08,25,01,55,17.40
2007,08,25,01,56,9.80
2007,08,25,01,57,16.40
2007,08,25,01,58,16.40
2007,08,25,01,59,7.50
2007,08,25,02,00,16.00
2007,08,25,02,01,15.00
2007,08,25,02,02,16.50
2007,08,25,02,03,22.70
2007,08,25,02,04,17.00
2007,08,25,02,05,16.90
2007,08,25,02,06,18.00
2007,08,25,02,07,14.70
2007,08,25,02,08,17.70
2007,08,25,02,09,20.10
2007,08,25,02,10,13.90
2007,08,25,02,11,14.20
2007,08,25,02,12,9.10
2007,08,25,02,13,17.30
2007,08,25,02,14,19.80
2007,08,25,02,15,22.50
2007,08,25,02,16,17.70
2007,08,25,02,17,16.10
2007,08,25,02,18,10.60
2007,08,25,02,19,12.00
2007,08,25,02,20,13.50
2007,08,25,02,21,19.30
2007,08,25,02,22,19.10
2007,08,25,02,23,12.20
2007,08,25,02,24,14.90
2007,08,25,02,25,16.40
2007,08,25,02,26,10.20
2007,08,25,02,27,12.60
2007,08,25,02,28,16.70
2007,08,25,02,29,9.80
2007,08,25,02,30,11.60
2007,08,25,02,31,15.30
2007,08,25,02,32,14.50
2007,08,25,02,33,11.90
2007,08,25,02,34,8.20
2007,08,25,02,35,13.60
2007,08,25,02,36,9.90
2007,08,25,02,37,17.20
2007,08,25,02,38,18.20
2007,08,25,02,39,12.00
2007,08,25,02,40,7.70
2007,08,25,02,41,15.70
2007,08,25,02,42,14.70
2007,08,25,02,43,14.70
2007,08,25,02,44,18.80
2007,08,25,02,45,19.70
2007,08,25,02,46,13.00
2007,08,25,02,47,13.70
2007,08,25,02,48,15.30
2007,08,25,02,49,10.80
2007,08,25,02,50,13.20
2007,08,25,02,51,20.60
2007,08,25,02,52,17.60
2007,08,25,02,53,15.50
2007,08,25,02,54,15.80
2007,08,25,02,55,13.70
2007,08,25,02,56,19.90
2007,08,25,02,57,17.20
2007,08,25,02,58,13.90
2007,08,25,02,59,15.70
2007,08,25,03,00,19.60
2007,08,25,03,01,14.20
2007,08,25,03,02,19.30
2007,08,25,03,03,15.10
2007,08,25,03,04,20.60
2007,08,25,03,05,20.60
2007,08,25,03,06,14.50
2007,08,25,03,07,16.90
2007,08,25,03,08,13.10
2007,08,25,03,09,20.80
2007,08,25,03,10,19.60
2007,08,25,03,11,16.00
2007,08,25,03,12,21.10
2007,08,25,03,13,18.80
2007,08,25,03,14,21.30
2007,08,25,03,15,14.80
2007,08,25,03,16,22.50
2007,08,25,03,17,20.20
2007,08,25,03,18,23.40
2007,08,25,03,19,19.60
2007,08,25,03,20,22.80
2007,08,25,03,21,16.30
2007,08,25,03,22,26.90
2007,08,25,03,23,21.70
2007,08,25,03,24,13.60
2007,08,25,03,25,15.50
2007,08,25,03,26,18.40
2007,08,25,03,27,16.60
2007,08,25,03,28,13.90
2007,08,25,03,29,17.50
2007,08,25,03,30,20.30
2007,08,25,03,31,20.80
2007,08,25,03,32,17.80
2007,08,25,03,33,17.80
2007,08,25,03,34,20.80
2007,08,25,03,35,16.60
2007,08,25,03,36,18.10
2007,08,25,03,37,15.00
2007,08,25,03,38,17.60
2007,08,25,03,39,12.60
2007,08,25,03,40,18.70
2007,08,25,03,41,24.90
2007,08,25,03,42,22.50
2007,08,25,03,43,24.60
2007,08,25,03,44,20.90
2007,08,25,03,45,21.00
2007,08,25,03,46,22.90
2007,08,25,03,47,10.80
2007,08,25,03,48,17.80
2007,08,25,03,49,23.10
2007,08,25,03,50,20.00
2007,08,25,03,51,17.40
2007,08,25,03,52,15.70
2007,08,25,03,53,18.70
2007,08,25,03,54,10.20
2007,08,25,03,55,17.40
2007,08,25,03,56,15.10
2007,08,25,03,57,20.90
2007,08,25,03,58,14.60
2007,08,25,03,59,14.90
2007,08,25,04,00,18.10
2007,08,25,04,01,19.40
2007,08,25,04,02,18.20
2007,08,25,04,03,23.20
2007,08,25,04,04,20.40
2007,08,25,04,05,11.70
2007,08,25,04,06,15.40
2007,08,25,04,07,15.00
2007,08,25,04,08,20.60
2007,08,25,04,09,16.40
2007,08,25,04,10,22.00
2007,08,25,04,11,17.60
2007,08,25,04,12,16.90
2007,08,25,04,13,23.90
2007,08,25,04,14,13.50
2007,08,25,04,15,19.80
2007,08,25,04,16,18.90
2007,08,25,04,17,17.90
2007,08,25,04,18,11.40
2007,08,25,04,19,17.70
2007,08,25,04,20,15.90
2007,08,25,04,21,14.10
2007,08,25,04,22,14.40
2007,08,25,04,23,14.80
2007,08,25,04,24,18.30
2007,08,25,04,25,9.30
2007,08,25,04,26,14.60
2007,08,25,04,27,9.20
2007,08,25,04,28,8.70
2007,08,25,04,29,13.30
2007,08,25,04,30,14.60
2007,08,25,04,31,14.40
2007,08,25,04,32,14.20
2007,08,25,04,33,17.60
2007,08,25,04,34,11.40
2007,08,25,04,35,6.10
2007,08,25,04,36,7.70
2007,08,25,04,37,7.80
2007,08,25,04,38,16.50
2007,08,25,04,39,7.50
2007,08,25,04,40,10.20
2007,08,25,04,41,7.40
2007,08,25,04,42,7.80
2007,08,25,04,43,3.90
2007,08,25,04,44,6.10
2007,08,25,04,45,6.10
2007,08,25,04,46,7.80
2007,08,25,04,47,9.70
2007,08,25,04,48,10.50
2007,08,25,04,49,11.80
2007,08,25,04,50,9.60
2007,08,25,04,51,10.90
2007,08,25,04,52,9.80
2007,08,25,04,53,11.80
2007,08,25,04,54,7.50
2007,08,25,04,55,6.20
2007,08,25,04,56,10.80
2007,08,25,04,57,11.70
2007,08,25,04,58,7.30
2007,08,25,04,59,10.20
2007,08,25,05,00,9.70
2007,08,25,05,01,8.70
2007,08,25,05,02,17.70
2007,08,25,05,03,10.20
2007,08,25,05,04,10.30
2007,08,25,05,05,17.90
2007,08,25,05,06,8.20
2007,08,25,05,07,9.70
2007,08,25,05,08,10.80
2007,08,25,05,09,10.40
2007,08,25,05,10,8.70
2007,08,25,05,11,10.20
2007,08,25,05,12,6.80
2007,08,25,05,13,12.40
2007,08,25,05,14,19.20
2007,08,25,05,15,12.40
2007,08,25,05,16,12.20
2007,08,25,05,17,9.30
2007,08,25,05,18,12.00
2007,08,25,05,19,15.90
2007,08,25,05,20,13.90
2007,08,25,05,21,8.10
2007,08,25,05,22,9.10
2007,08,25,05,23,7.50
2007,08,25,05,24,14.10
2007,08,25,05,25,13.50
2007,08,25,05,26,10.40
2007,08,25,05,27,13.90
2007,08,25,05,28,12.20
2007,08,25,05,29,8.70
2007,08,25,05,30,10.80
2007,08,25,05,31,9.60
2007,08,25,05,32,9.40
2007,08,25,05,33,7.10
2007,08,25,05,34,13.70
2007,08,25,05,35,12.40
2007,08,25,05,36,8.20
2007,08,25,05,37,8.60
2007,08,25,05,38,13.10
2007,08,25,05,39,11.20
2007,08,25,05,40,13.80
2007,08,25,05,41,12.20
2007,08,25,05,42,10.10
2007,08,25,05,43,9.10
2007,08,25,05,44,8.90
2007,08,25,05,45,10.60
2007,08,25,05,46,9.70
2007,08,25,05,47,14.20
2007,08,25,05,48,14.20
2007,08,25,05,49,12.50
2007,08,25,05,50,8.40
2007,08,25,05,51,12.90
2007,08,25,05,52,12.70
2007,08,25,05,53,8.60
2007,08,25,05,54,10.20
2007,08,25,05,55,19.80
2007,08,25,05,56,18.20
2007,08,25,05,57,18.30
2007,08,25,05,58,19.20
2007,08,25,05,59,16.20
2007,08,25,06,00,13.50
2007,08,25,06,01,15.00
2007,08,25,06,02,14.00
2007,08,25,06,03,8.80
2007,08,25,06,04,9.30
2007,08,25,06,05,10.60
2007,08,25,06,06,8.10
2007,08,25,06,07,5.70
2007,08,25,06,08,12.60
2007,08,25,06,09,8.90
2007,08,25,06,10,6.10
2007,08,25,06,11,8.40
2007,08,25,06,12,6.50
2007,08,25,06,13,5.30
2007,08,25,06,14,10.00
2007,08,25,06,15,4.10
2007,08,25,06,16,4.90
2007,08,25,06,17,7.50
2007,08,25,06,18,6.50
2007,08,25,06,19,8.10
2007,08,25,06,20,9.40
2007,08,25,06,21,13.10
2007,08,25,06,22,6.80
2007,08,25,06,23,9.00
2007,08,25,06,24,8.40
2007,08,25,06,25,6.40
2007,08,25,06,26,6.50
2007,08,25,06,27,3.60
2007,08,25,06,28,7.20
2007,08,25,06,29,3.80
2007,08,25,06,30,6.10
2007,08,25,06,31,4.70
2007,08,25,06,32,8.00
2007,08,25,06,33,5.60
2007,08,25,06,34,5.10
2007,08,25,06,35,5.30
2007,08,25,06,36,2.50
2007,08,25,06,37,10.50
2007,08,25,06,38,7.00
2007,08,25,06,39,4.80
2007,08,25,06,40,7.70
2007,08,25,06,41,5.30
2007,08,25,06,42,10.30
2007,08,25,06,43,12.60
2007,08,25,06,44,13.00
2007,08,25,06,45,17.20
2007,08,25,06,46,11.40
2007,08,25,06,47,13.90
2007,08,25,06,48,10.10
2007,08,25,06,49,6.80
2007,08,25,06,50,7.50
2007,08,25,06,51,18.40
2007,08,25,06,52,12.00
2007,08,25,06,53,14.00
2007,08,25,06,54,15.60
2007,08,25,06,55,10.60
2007,08,25,06,56,11.10
2007,08,25,06,57,12.30
2007,08,25,06,58,14.80
2007,08,25,06,59,11.00
2007,08,25,07,00,10.50
2007,08,25,07,01,10.80
2007,08,25,07,02,7.50
2007,08,25,07,03,12.70
2007,08,25,07,04,9.10
2007,08,25,07,05,14.60
2007,08,25,07,06,7.50
2007,08,25,07,07,10.00
2007,08,25,07,08,11.30
2007,08,25,07,09,12.80
2007,08,25,07,10,10.20
2007,08,25,07,11,9.60
2007,08,25,07,12,11.20
2007,08,25,07,13,11.60
2007,08,25,07,14,8.40
2007,08,25,07,15,11.30
2007,08,25,07,16,8.70
2007,08,25,07,17,8.40
2007,08,25,07,18,11.10
2007,08,25,07,19,9.30
2007,08,25,07,20,8.40
2007,08,25,07,21,9.10
2007,08,25,07,22,10.50
2007,08,25,07,23,10.30
2007,08,25,07,24,13.10
2007,08,25,07,25,13.00
2007,08,25,07,26,10.30
2007,08,25,07,27,8.90
2007,08,25,07,28,12.40
2007,08,25,07,29,11.90
2007,08,25,07,30,9.40
2007,08,25,07,31,12.90
2007,08,25,07,32,7.70
2007,08,25,07,33,7.90
2007,08,25,07,34,9.30
2007,08,25,07,35,6.00
2007,08,25,07,36,9.00
2007,08,25,07,37,13.30
2007,08,25,07,38,8.80
2007,08,25,07,39,17.20
2007,08,25,07,40,12.60
2007,08,25,07,41,7.50
2007,08,25,07,42,13.70
2007,08,25,07,43,11.20
2007,08,25,07,44,11.70
2007,08,25,07,45,18.00
2007,08,25,07,46,17.30
2007,08,25,07,47,12.20
2007,08,25,07,48,10.80
2007,08,25,07,49,13.00
2007,08,25,07,50,12.10
2007,08,25,07,51,12.00
2007,08,25,07,52,19.50
2007,08,25,07,53,8.90
2007,08,25,07,54,7.80
2007,08,25,07,55,13.40
2007,08,25,07,56,11.40
2007,08,25,07,57,13.70
2007,08,25,07,58,13.50
2007,08,25,07,59,13.80
2007,08,25,08,00,9.50
2007,08,25,08,01,9.00
2007,08,25,08,02,9.90
2007,08,25,08,03,11.00
2007,08,25,08,04,14.30
2007,08,25,08,05,9.30
2007,08,25,08,06,7.20
2007,08,25,08,07,10.00
2007,08,25,08,08,10.70
2007,08,25,08,09,11.20
2007,08,25,08,10,10.90
2007,08,25,08,11,8.90
2007,08,25,08,12,9.70
2007,08,25,08,13,14.20
2007,08,25,08,14,10.80
2007,08,25,08,15,11.60
2007,08,25,08,16,10.40
2007,08,25,08,17,11.90
2007,08,25,08,18,12.50
2007,08,25,08,19,7.20
2007,08,25,08,20,9.00
2007,08,25,08,21,6.00
2007,08,25,08,22,9.00
2007,08,25,08,23,6.40
2007,08,25,08,24,7.60
2007,08,25,08,25,10.50
2007,08,25,08,26,12.10
2007,08,25,08,27,10.20
2007,08,25,08,28,10.50
2007,08,25,08,29,5.00
2007,08,25,08,30,4.70
2007,08,25,08,31,8.40
2007,08,25,08,32,10.10
2007,08,25,08,33,2.90
2007,08,25,08,34,7.10
2007,08,25,08,35,7.60
2007,08,25,08,36,8.10
2007,08,25,08,37,13.50
2007,08,25,08,38,8.70
2007,08,25,08,39,8.60
2007,08,25,08,40,9.50
2007,08,25,08,41,4.40
2007,08,25,08,42,14.40
2007,08,25,08,43,10.00
2007,08,25,08,44,11.80
2007,08,25,08,45,8.80
2007,08,25,08,46,10.00
2007,08,25,08,47,11.10
2007,08,25,08,48,13.20
2007,08,25,08,49,9.30
2007,08,25,08,50,10.20
2007,08,25,08,51,13.50
2007,08,25,08,52,11.10
2007,08,25,08,53,12.70
2007,08,25,08,54,8.80
2007,08,25,08,55,8.10
2007,08,25,08,56,6.70
2007,08,25,08,57,5.10
2007,08,25,08,58,6.60
2007,08,25,08,59,6.80
2007,08,25,09,00,5.60
2007,08,25,09,01,5.70
2007,08,25,09,02,5.10
2007,08,25,09,03,5.30
2007,08,25,09,04,6.70
2007,08,25,09,05,4.80
2007,08,25,09,06,7.00
2007,08,25,09,07,4.40
2007,08,25,09,08,6.40
2007,08,25,09,09,8.30
2007,08,25,09,10,8.20
2007,08,25,09,11,5.80
2007,08,25,09,12,8.50
2007,08,25,09,13,6.10
2007,08,25,09,14,8.20
2007,08,25,09,15,10.10
2007,08,25,09,16,8.80
2007,08,25,09,17,8.30
2007,08,25,09,18,10.30
2007,08,25,09,19,9.20
2007,08,25,09,20,7.10
2007,08,25,09,21,12.00
2007,08,25,09,22,10.30
2007,08,25,09,23,10.80
2007,08,25,09,24,6.10
2007,08,25,09,25,15.90
2007,08,25,09,26,15.00
2007,08,25,09,27,11.40
2007,08,25,09,28,12.00
2007,08,25,09,29,11.40
2007,08,25,09,30,11.90
2007,08,25,09,31,9.10
2007,08,25,09,32,11.10
2007,08,25,09,33,14.50
2007,08,25,09,34,14.30
2007,08,25,09,35,16.70
2007,08,25,09,36,10.00
2007,08,25,09,37,3.10
2007,08,25,09,38,8.10
2007,08,25,09,39,6.60
2007,08,25,09,40,7.80
2007,08,25,09,41,10.40
2007,08,25,09,42,10.60
2007,08,25,09,43,9.80
2007,08,25,09,44,4.20
2007,08,25,09,45,3.40
2007,08,25,09,46,5.40
2007,08,25,09,47,10.00
2007,08,25,09,48,6.40
2007,08,25,09,49,3.90
2007,08,25,09,50,3.90
2007,08,25,09,51,3.90
2007,08,25,09,52,4.80
2007,08,25,09,53,7.50
2007,08,25,09,54,4.80
2007,08,25,09,55,8.70
2007,08,25,09,56,4.40
2007,08,25,09,57,5.20
2007,08,25,09,58,5.20
2007,08,25,09,59,2.60
2007,08,25,10,00,5.20
2007,08,25,10,01,4.10
2007,08,25,10,02,7.60
2007,08,25,10,03,6.70
2007,08,25,10,04,5.60
2007,08,25,10,05,5.30
2007,08,25,10,06,6.00
2007,08,25,10,07,11.90
2007,08,25,10,08,3.50
2007,08,25,10,09,4.60
2007,08,25,10,10,6.20
2007,08,25,10,11,3.10
2007,08,25,10,12,5.70
2007,08,25,10,13,4.30
2007,08,25,10,14,8.10
2007,08,25,10,15,3.40
2007,08,25,10,16,4.80
2007,08,25,10,17,4.50
2007,08,25,10,18,4.60
2007,08,25,10,19,3.00
2007,08,25,10,20,3.00
2007,08,25,10,21,4.30
2007,08,25,10,22,1.50
2007,08,25,10,23,5.30
2007,08,25,10,24,3.50
2007,08,25,10,25,3.20
2007,08,25,10,26,9.90
2007,08,25,10,27,3.90
2007,08,25,10,28,8.60
2007,08,25,10,29,8.00
2007,08,25,10,30,5.90
2007,08,25,10,31,5.30
2007,08,25,10,32,4.30
2007,08,25,10,33,4.40
2007,08,25,10,34,5.00
2007,08,25,10,35,5.20
2007,08,25,10,36,5.20
2007,08,25,10,37,8.20
2007,08,25,10,38,6.40
2007,08,25,10,39,5.20
2007,08,25,10,40,5.10
2007,08,25,10,41,5.10
2007,08,25,10,42,4.80
2007,08,25,10,43,6.40
2007,08,25,10,44,8.70
2007,08,25,10,45,5.50
2007,08,25,10,46,4.90
2007,08,25,10,47,7.20
2007,08,25,10,48,8.70
2007,08,25,10,49,6.50
2007,08,25,10,50,8.80
2007,08,25,10,51,4.40
2007,08,25,10,52,8.60
2007,08,25,10,53,9.30
2007,08,25,10,54,11.20
2007,08,25,10,55,4.30
2007,08,25,10,56,7.80
2007,08,25,10,57,9.00
2007,08,25,10,58,7.40
2007,08,25,10,59,6.30
2007,08,25,11,00,7.70
2007,08,25,11,01,7.40
2007,08,25,11,02,7.00
2007,08,25,11,03,5.80
2007,08,25,11,04,7.50
2007,08,25,11,05,6.00
2007,08,25,11,06,8.50
2007,08,25,11,07,9.50
2007,08,25,11,08,9.00
2007,08,25,11,09,10.10
2007,08,25,11,10,8.50
2007,08,25,11,11,11.10
2007,08,25,11,12,12.00
2007,08,25,11,13,6.90
2007,08,25,11,14,9.00
2007,08,25,11,15,7.80
2007,08,25,11,16,8.30
2007,08,25,11,17,6.20
2007,08,25,11,18,7.30
2007,08,25,11,19,11.20
2007,08,25,11,20,10.90
2007,08,25,11,21,10.10
2007,08,25,11,22,8.60
2007,08,25,11,23,8.30
2007,08,25,11,24,8.00
2007,08,25,11,25,7.10
2007,08,25,11,26,8.50
2007,08,25,11,27,7.10
2007,08,25,11,28,4.60
2007,08,25,11,29,3.20
2007,08,25,11,30,6.00
2007,08,25,11,31,5.40
2007,08,25,11,32,6.50
2007,08,25,11,33,2.60
2007,08,25,11,34,9.50
2007,08,25,11,35,3.80
2007,08,25,11,36,4.80
2007,08,25,11,37,4.40
2007,08,25,11,38,3.80
2007,08,25,11,39,2.70
2007,08,25,11,40,4.20
2007,08,25,11,41,3.40
2007,08,25,11,42,2.50
2007,08,25,11,43,3.10
2007,08,25,11,44,4.00
2007,08,25,11,45,1.80
2007,08,25,11,46,4.00
2007,08,25,11,47,9.80
2007,08,25,11,48,7.00
2007,08,25,11,49,5.60
2007,08,25,11,50,1.80
2007,08,25,11,51,4.20
2007,08,25,11,52,6.70
2007,08,25,11,53,9.30
2007,08,25,11,54,1.90
2007,08,25,11,55,6.60
2007,08,25,11,56,6.80
2007,08,25,11,57,4.70
2007,08,25,11,58,5.90
2007,08,25,11,59,3.30
2007,08,25,12,00,7.50
2007,08,25,12,01,4.70
2007,08,25,12,02,3.20
2007,08,25,12,03,6.20
2007,08,25,12,04,3.90
2007,08,25,12,05,2.00
2007,08,25,12,06,5.30
2007,08,25,12,07,5.00
2007,08,25,12,08,3.80
2007,08,25,12,09,1.90
2007,08,25,12,10,3.80
2007,08,25,12,11,1.50
2007,08,25,12,12,3.20
2007,08,25,12,13,2.60
2007,08,25,12,14,2.70
2007,08,25,12,15,1.60
2007,08,25,12,16,2.30
2007,08,25,12,17,5.00
2007,08,25,12,18,6.00
2007,08,25,12,19,3.80
2007,08,25,12,20,2.70
2007,08,25,12,21,4.00
2007,08,25,12,22,3.80
2007,08,25,12,23,1.90
2007,08,25,12,24,1.40
2007,08,25,12,25,2.50
2007,08,25,12,26,2.30
2007,08,25,12,27,2.60
2007,08,25,12,28,4.00
2007,08,25,12,29,3.50
2007,08,25,12,30,3.40
2007,08,25,12,31,5.40
2007,08,25,12,32,3.40
2007,08,25,12,33,0.30
2007,08,25,12,34,3.60
2007,08,25,12,35,3.20
2007,08,25,12,36,3.90
2007,08,25,12,37,5.90
2007,08,25,12,38,3.00
2007,08,25,12,39,5.10
2007,08,25,12,40,7.50
2007,08,25,12,41,4.80
2007,08,25,12,42,2.60
2007,08,25,12,43,4.60
2007,08,25,12,44,6.70
2007,08,25,12,45,5.70
2007,08,25,12,46,4.40
2007,08,25,12,47,4.60
2007,08,25,12,48,4.30
2007,08,25,12,49,4.30
2007,08,25,12,50,1.90
2007,08,25,12,51,1.60
2007,08,25,12,52,1.10
2007,08,25,12,53,2.00
2007,08,25,12,54,1.00
2007,08,25,12,55,2.80
2007,08,25,12,56,2.60
2007,08,25,12,57,2.10
2007,08,25,12,58,1.00
2007,08,25,12,59,2.40
2007,08,25,13,00,0.30
2007,08,25,13,01,0.60
2007,08,25,13,02,1.90
2007,08,25,13,03,2.00
2007,08,25,13,04,3.20
2007,08,25,13,05,1.40
2007,08,25,13,06,2.40
2007,08,25,13,07,3.50
2007,08,25,13,08,2.00
2007,08,25,13,09,0.80
2007,08,25,13,10,2.40
2007,08,25,13,11,5.50
2007,08,25,13,12,3.00
2007,08,25,13,13,5.60
2007,08,25,13,14,6.30
2007,08,25,13,15,2.10
2007,08,25,13,16,2.90
2007,08,25,13,17,1.90
2007,08,25,13,18,0.50
2007,08,25,13,19,1.50
2007,08,25,13,20,0.20
2007,08,25,13,21,2.90
2007,08,25,13,22,4.20
2007,08,25,13,23,2.40
2007,08,25,13,24,2.50
2007,08,25,13,25,2.20
2007,08,25,13,26,1.30
2007,08,25,13,27,0.60
2007,08,25,13,28,2.30
2007,08,25,13,29,0.50
2007,08,25,13,30,1.20
2007,08,25,13,31,2.50
2007,08,25,13,32,1.50
2007,08,25,13,33,2.10
2007,08,25,13,34,3.10
2007,08,25,13,35,2.40
2007,08,25,13,36,4.70
2007,08,25,13,37,3.90
2007,08,25,13,38,5.40
2007,08,25,13,39,3.30
2007,08,25,13,40,5.80
2007,08,25,13,41,4.40
2007,08,25,13,42,4.40
2007,08,25,13,43,4.90
2007,08,25,13,44,3.00
2007,08,25,13,45,4.50
2007,08,25,13,46,4.10
2007,08,25,13,47,1.80
2007,08,25,13,48,0.90
2007,08,25,13,49,3.90
2007,08,25,13,50,5.60
2007,08,25,13,51,2.80
2007,08,25,13,52,3.10
2007,08,25,13,53,1.80
2007,08,25,13,54,4.40
2007,08,25,13,55,2.30
2007,08,25,13,56,2.40
2007,08,25,13,57,4.10
2007,08,25,13,58,5.20
2007,08,25,13,59,1.80
2007,08,25,14,00,0.50
2007,08,25,14,01,0.90
2007,08,25,14,02,2.70
2007,08,25,14,03,2.00
2007,08,25,14,04,4.00
2007,08,25,14,05,4.50
2007,08,25,14,06,4.60
2007,08,25,14,07,1.00
2007,08,25,14,08,2.20
2007,08,25,14,09,3.00
2007,08,25,14,10,2.40
2007,08,25,14,11,1.90
2007,08,25,14,12,4.10
2007,08,25,14,13,4.10
2007,08,25,14,14,2.10
2007,08,25,14,15,5.30
2007,08,25,14,16,1.20
2007,08,25,14,17,3.60
2007,08,25,14,18,2.40
2007,08,25,14,19,6.50
2007,08,25,14,20,5.00
2007,08,25,14,21,3.50
2007,08,25,14,22,2.30
2007,08,25,14,23,5.70
2007,08,25,14,24,4.50
2007,08,25,14,25,4.20
2007,08,25,14,26,4.80
2007,08,25,14,27,3.30
2007,08,25,14,28,4.30
2007,08,25,14,29,5.70
2007,08,25,14,30,5.30
2007,08,25,14,31,3.60
2007,08,25,14,32,2.70
2007,08,25,14,33,3.80
2007,08,25,14,34,1.90
2007,08,25,14,35,5.50
2007,08,25,14,36,4.10
2007,08,25,14,37,3.30
2007,08,25,14,38,1.70
2007,08,25,14,39,2.70
2007,08,25,14,40,2.50
2007,08,25,14,41,2.10
2007,08,25,14,42,4.00
2007,08,25,14,43,3.40
2007,08,25,14,44,2.80
2007,08,25,14,45,5.00
2007,08,25,14,46,3.70
2007,08,25,14,47,4.20
2007,08,25,14,48,3.40
2007,08,25,14,49,6.90
2007,08,25,14,50,1.30
2007,08,25,14,51,5.60
2007,08,25,14,52,3.60
2007,08,25,14,53,3.90
2007,08,25,14,54,3.60
2007,08,25,14,55,6.30
2007,08,25,14,56,4.10
2007,08,25,14,57,0.50
2007,08,25,14,58,3.50
2007,08,25,14,59,4.40
2007,08,25,15,00,2.90
2007,08,25,15,01,2.00
2007,08,25,15,02,2.70
2007,08,25,15,03,0.70
2007,08,25,15,04,2.10
2007,08,25,15,05,2.60
2007,08,25,15,06,2.40
2007,08,25,15,07,3.40
2007,08,25,15,08,2.60
2007,08,25,15,09,2.30
2007,08,25,15,10,1.50
2007,08,25,15,11,2.40
2007,08,25,15,12,2.70
2007,08,25,15,13,2.40
2007,08,25,15,14,1.60
2007,08,25,15,15,0.60
2007,08,25,15,16,2.00
2007,08,25,15,17,3.10
2007,08,25,15,18,4.20
2007,08,25,15,19,0.90
2007,08,25,15,20,0.90
2007,08,25,15,21,2.30
2007,08,25,15,22,2.80
2007,08,25,15,23,2.20
2007,08,25,15,24,1.90
2007,08,25,15,25,4.00
2007,08,25,15,26,3.00
2007,08,25,15,27,4.00
2007,08,25,15,28,2.00
2007,08,25,15,29,1.40
2007,08,25,15,30,1.50
2007,08,25,15,31,2.60
2007,08,25,15,32,2.50
2007,08,25,15,33,2.80
2007,08,25,15,34,3.90
2007,08,25,15,35,2.80
2007,08,25,15,36,1.50
2007,08,25,15,37,3.20
2007,08,25,15,38,4.90
2007,08,25,15,39,4.10
2007,08,25,15,40,3.40
2007,08,25,15,41,1.50
2007,08,25,15,42,3.00
2007,08,25,15,43,0.20
2007,08,25,15,44,0.20
2007,08,25,15,45,2.00
2007,08,25,15,46,0.50
2007,08,25,15,47,2.80
2007,08,25,15,48,1.50
2007,08,25,15,49,0.20
2007,08,25,15,50,0.80
2007,08,25,15,51,1.40
2007,08,25,15,52,0.80
2007,08,25,15,53,1.60
2007,08,25,15,54,1.10
2007,08,25,15,55,2.10
2007,08,25,15,56,3.40
2007,08,25,15,57,2.90
2007,08,25,15,58,4.30
2007,08,25,15,59,1.30
2007,08,25,16,00,2.20
2007,08,25,16,01,2.60
2007,08,25,16,02,0.90
2007,08,25,16,03,1.70
2007,08,25,16,04,3.10
2007,08,25,16,05,5.50
2007,08,25,16,06,2.30
2007,08,25,16,07,5.00
2007,08,25,16,08,2.40
2007,08,25,16,09,4.10
2007,08,25,16,10,2.90
2007,08,25,16,11,3.00
2007,08,25,16,12,3.80
2007,08,25,16,13,3.20
2007,08,25,16,14,4.10
2007,08,25,16,15,3.90
2007,08,25,16,16,4.90
2007,08,25,16,17,4.20
2007,08,25,16,18,7.50
2007,08,25,16,19,2.00
2007,08,25,16,20,6.90
2007,08,25,16,21,4.00
2007,08,25,16,22,4.60
2007,08,25,16,23,2.80
2007,08,25,16,24,2.80
2007,08,25,16,25,1.10
2007,08,25,16,26,3.90
2007,08,25,16,27,0.60
2007,08,25,16,28,3.30
2007,08,25,16,29,4.20
2007,08,25,16,30,3.10
2007,08,25,16,31,2.70
2007,08,25,16,32,4.00
2007,08,25,16,33,4.10
2007,08,25,16,34,2.00
2007,08,25,16,35,6.10
2007,08,25,16,36,3.10
2007,08,25,16,37,2.70
2007,08,25,16,38,0.60
2007,08,25,16,39,3.10
2007,08,25,16,40,4.60
2007,08,25,16,41,7.00
2007,08,25,16,42,5.80
2007,08,25,16,43,6.40
2007,08,25,16,44,4.40
2007,08,25,16,45,5.50
2007,08,25,16,46,7.20
2007,08,25,16,47,8.50
2007,08,25,16,48,8.20
2007,08,25,16,49,5.20
2007,08,25,16,50,8.00
2007,08,25,16,51,5.80
2007,08,25,16,52,7.30
2007,08,25,16,53,6.20
2007,08,25,16,54,4.80
2007,08,25,16,55,6.40
2007,08,25,16,56,6.50
2007,08,25,16,57,5.90
2007,08,25,16,58,10.20
2007,08,25,16,59,5.80
2007,08,25,17,00,7.00
2007,08,25,17,01,5.80
2007,08,25,17,02,8.20
2007,08,25,17,03,6.40
2007,08,25,17,04,4.30
2007,08,25,17,05,5.10
2007,08,25,17,06,7.70
2007,08,25,17,07,6.40
2007,08,25,17,08,4.70
2007,08,25,17,09,8.10
2007,08,25,17,10,4.70
2007,08,25,17,11,5.00
2007,08,25,17,12,6.50
2007,08,25,17,13,5.60
2007,08,25,17,14,5.80
2007,08,25,17,15,6.80
2007,08,25,17,16,4.80
2007,08,25,17,17,7.00
2007,08,25,17,18,6.20
2007,08,25,17,19,9.10
2007,08,25,17,20,6.70
2007,08,25,17,21,4.20
2007,08,25,17,22,3.50
2007,08,25,17,23,4.50
2007,08,25,17,24,3.40
2007,08,25,17,25,5.10
2007,08,25,17,26,7.50
2007,08,25,17,27,4.30
2007,08,25,17,28,7.50
2007,08,25,17,29,6.80
2007,08,25,17,30,8.30
2007,08,25,17,31,7.30
2007,08,25,17,32,2.00
2007,08,25,17,33,3.50
2007,08,25,17,34,4.90
2007,08,25,17,35,1.30
2007,08,25,17,36,2.00
2007,08,25,17,37,2.60
2007,08,25,17,38,5.30
2007,08,25,17,39,3.40
2007,08,25,17,40,2.40
2007,08,25,17,41,3.40
2007,08,25,17,42,3.00
2007,08,25,17,43,2.30
2007,08,25,17,44,1.10
2007,08,25,17,45,1.60
2007,08,25,17,46,0.30
2007,08,25,17,47,2.90
2007,08,25,17,48,1.50